Location: Risskov
(56.1972°N, 10.2480°E)
Time: 22:58:34
(UTC+00:00)

Spot 4 - Pass Details

Date: 05 July 2020
Orbit: 705 x 722 km, 98.3° (Epoch: 14 August)

Event Time Altitude Azimuth Distance (km) Brightness Sun altitude
Exits shadow 21:20:01 - 140° (SE) 2,342 5.9 -6.9°
Reaches altitude 10° 21:20:25 10° 139° (SE) 2,182 5.7 -6.9°
Maximum altitude 21:25:01 50° 65° (ENE) 909 4.4 -7.2°
Drops below altitude 10° 21:29:39 10° 352° (N) 2,191 7.8 -7.5°
Sets 21:31:57 0° 347° (NNW) 3,114 9.1 -7.7°
